Location: Vancouver
(49.2500°N, 123.1330°W)
Time: 20:17:09
(UTC-07:00)

Iridium 35 - Visible Passes

Search period start: 27 May 2018 00:00
Search period end: 06 June 2018 00:00
Orbit: 761 x 765 km, 86.4° (Epoch: 27 May)

Date Brightness Start Highest point End Pass type
(mag) Time Alt. Az. Time Alt. Az. Time Alt. Az.
27 May 7.8 22:12:34 10° WSW 22:15:52 17° WNW 22:19:10 10° NNW visible
30 May 7.9 21:59:43 10° WSW 22:02:49 16° WNW 22:05:55 10° NNW visible
02 Jun 8.0 21:46:54 10° WSW 21:49:46 15° WNW 21:52:39 10° NNW visible
